Flag Weather past 2 weeks in Mason, Ohio, U.S.A.

Now
31 °F

Overcast.


Feels Like: 22 °F
Forecast: 27 / 36 °F
Wind: 10 mph from Northwest

Location: Butler County Regional Airport

Current Time: Nov 27, 2014 at 9:55:08 AM

Latest Report: Nov 27, 2014 at 8:53 AM


Visibility: 7 mi

Pressure: 30.27 "Hg

Humidity: 76%

Dew point: 24 °F

Location of MasonLocation

Historic Weather in Mason — Graph

°F

Mason temperature yesterday

Maximum temperature yesterday: 37 °F (at 1:53 PM)
Minimum temperature yesterday: 25 °F (at 2:53 AM)
Average temperature yesterday: 31 °F

Past Weeks' High & Low Weather Summary

 TemperatureHumidityPressure
High63 °F (Nov 24, 8:53 AM)100% (Nov 16, 6:53 PM)30.58 "Hg (Nov 16, 6:53 PM)
Low8 °F (Nov 21, 5:53 AM)37% (Nov 15, 3:53 PM)29.26 "Hg (Nov 23, 11:53 PM)
Average32 °F71%30.14 "Hg
* Reported Nov 12 7:53 AM — Nov 27 7:53 AM, Mason, Weather by CustomWeather, © 2014

Note: Actual official high and low records may vary slightly from our data, if they occured in-between our weather recording intervals... More about our weather records

Advertising

Mason weather history for previous 24 hours

 ConditionsComfort  
Time TempWeatherWind HumidityBarometerVisibility
7:53 AM
Nov 27
30 °FOvercast.9 mph79%30.24 "Hg7 mi
7:00 AM30 °FOvercast.12 mph79%30.20 "Hg8 mi
5:53 AM30 °FOvercast.7 mph79%30.18 "Hg8 mi
4:53 AM30 °FOvercast.7 mph79%30.16 "Hg8 mi
3:53 AM29 °FOvercast.6 mph82%30.14 "Hg8 mi
2:53 AM29 °FOvercast.6 mph82%30.13 "Hg9 mi
1:53 AM28 °FPassing clouds.6 mph81%30.10 "Hg9 mi
12:53 AM27 °FPassing clouds.No wind85%30.11 "Hg9 mi
11:53 PM
Nov 26
29 °FOvercast.No wind79%30.11 "Hg9 mi
10:53 PM28 °FPassing clouds.No wind81%30.10 "Hg9 mi
9:53 PM30 °FClear.No wind79%30.11 "Hg10 mi
8:53 PM30 °FClear.6 mph79%30.10 "Hg10 mi
7:53 PM32 °FClear.7 mph79%30.09 "Hg9 mi
6:53 PM33 °FClear.7 mph75%30.08 "Hg10 mi
5:53 PM33 °FClear.7 mph75%30.06 "Hg10 mi
4:53 PM34 °FPassing clouds.6 mph70%30.08 "Hg10 mi
3:53 PM37 °FOvercast.No wind65%30.09 "Hg10 mi
2:53 PM37 °FOvercast.5 mph67%30.09 "Hg10 mi
1:53 PM37 °FMostly cloudy.3 mph67%30.10 "Hg9 mi
12:53 PM36 °FMore clouds than sun.No wind70%30.11 "Hg8 mi
11:53 AM34 °FMore clouds than sun.3 mph73%30.14 "Hg9 mi
10:53 AM33 °FMostly cloudy.5 mph75%30.17 "Hg8 mi
9:53 AM32 °FOvercast.7 mph79%30.18 "Hg9 mi
Weather by CustomWeather, © 2014

See weather overviewHow to use our weather pages